User: anonymous
Location: Columbia
(38.9520°N, 92.3340°W)
Time: 18:00:41
(UTC-05:00)
Language:

Cosmos 158 Rocket - Orbit

View from above orbital plane
View from above orbital plane
View from above satellite
View from above satellite

Ground track
Ground track

The orbit data is extracted from the following two-line orbital elements,

1 02802U 67045B   14237.13328033  .00000053  00000-0  23473-4 0  5407
2 02802 074.0112 278.1550 0067549 220.5661 139.0452 14.43218717480789
Epoch (UTC): 25 August 2014 03:11:55
Eccentricity: 0.0067549
inclination: 74.0112°
perigee height: 700 km
apogee height: 796 km
right ascension of ascending node: 278.1550°
argument of perigee: 220.5661°
revolutions per day: 14.43218717
mean anomaly at epoch: 139.0452°
orbit number at epoch: 48078

The dashed part of the orbit path shows where the satellite is in the earth's shadow,  

DLR